Wind_Speed
10 10 10 10 9 9 8 7 6 6 5 4 4 3 3 3 3 3 4 4 4 5 5 5 5 5 5 4 4 4 4 4 4 4 3 3 3 3 3 2 2 2 2 2
11 11 12 11 10 10 8 7 7 8 6 5 4 5 5 4 4 4 5 5 5 6 6 5 5 5 5 4 4 4 4 4 4 4 3 3 4 4 3 3 3 3 3 3
12 13 13 12 11 11 10 9 9 9 7 6 5 6 6 5 5 6 6 6 6 7 7 6 6 6 5 5 5 5 5 5 5 5 4 4 4 4 4 4 4 5 4 4
14 14 13 13 12 10 10 10 10 9 7 7 6 7 7 6 6 7 7 7 8 8 7 7 7 7 7 6 6 7 6 6 6 6 6 5 5 5 5 6 6 6 6 5
15 14 14 13 12 11 11 11 10 9 8 7 7 6 8 7 7 7 8 8 8 8 8 8 8 8 8 8 7 7 7 7 7 7 6 6 6 7 7 7 8 8 8 7
15 15 15 15 13 12 12 11 10 9 8 8 8 7 8 8 8 8 8 9 9 9 9 10 10 10 10 9 9 8 8 8 8 8 8 8 8 8 8 9 9 10 10 9
15 15 16 15 13 12 11 10 8 8 8 9 9 8 9 9 9 9 9 9 9 9 10 10 10 10 11 11 10 10 10 10 10 11 11 11 11 11 11 10 10 11 11 11
15 15 16 15 14 13 12 11 10 9 8 9 10 9 9 9 9 9 9 10 11 11 11 12 12 12 12 12 12 12 11 11 12 12 12 13 13 13 12 12 12 12 12 13
16 16 17 16 16 15 14 13 13 11 10 10 11 11 10 10 10 10 10 11 12 12 12 12 12 13 13 13 13 13 13 13 13 13 13 13 14 15 15 14 14 14 15 16
18 18 17 17 16 16 15 15 14 12 12 11 12 12 12 12 11 12 12 13 13 13 13 13 13 13 14 14 14 14 14 14 14 15 14 14 14 15 15 15 15 15 16 17
19 19 18 18 18 16 17 17 17 15 14 12 13 14 14 14 13 13 14 14 15 15 15 15 15 15 15 15 16 16 16 16 16 16 16 16 16 16 16 16 16 17 17 18
20 20 19 19 19 19 19 19 18 17 17 16 15 16 16 15 15 15 15 15 15 15 16 16 16 16 16 17 17 17 17 17 17 17 17 17 17 17 18 17 17 18 18 18
22 22 20 19 19 20 20 19 19 18 18 18 17 18 18 17 17 16 17 17 16 16 16 17 17 17 17 18 18 18 18 18 18 18 18 18 18 18 19 19 20 19 19 20
24 24 22 21 20 21 21 20 20 19 19 19 19 19 20 19 18 18 18 18 17 17 17 18 18 18 18 18 18 19 19 19 19 19 19 19 19 20 20 21 21 21 21 21
25 24 24 25 24 24 23 22 22 22 21 21 22 21 21 21 20 20 20 20 19 19 18 19 19 19 20 20 20 21 20 21 20 20 20 21 21 20 20 22 23 23 23 23
26 26 25 25 25 25 25 24 24 24 23 23 23 23 22 22 21 20 20 21 21 21 21 21 21 21 21 22 22 22 22 22 23 22 22 23 23 22 23 23 24 24 24 24
27 27 26 26 26 26 26 24 24 25 25 24 24 24 24 24 22 21 21 22 21 21 22 22 22 22 22 23 23 24 24 23 23 24 25 25 24 24 24 24 25 25 24 25
29 29 29 28 27 28 27 26 25 25 25 26 26 25 25 24 23 22 22 22 22 22 22 23 23 23 23 23 23 24 25 25 25 26 26 26 26 26 25 25 26 26 26 26
30 29 29 29 28 28 28 27 25 25 25 26 26 25 25 24 24 23 23 23 23 23 23 23 24 24 25 25 25 25 26 26 27 27 26 26 27 27 27 27 27 27 27 28
30 30 30 30 29 28 27 26 25 25 26 25 25 25 25 24 24 24 23 23 23 23 24 24 24 25 25 25 26 26 27 27 27 27 27 28 28 28 28 28 29 29 29 29
30 30 30 30 29 28 29 27 26 26 26 25 25 25 25 25 25 24 24 24 24 24 24 25 25 26 26 26 26 26 27 28 28 28 29 29 29 30 30 30 31 31 31 31
29 29 29 29 29 29 29 28 27 27 26 25 25 25 25 25 25 26 26 26 25 25 26 26 26 26 27 28 28 28 28 29 29 29 30 30 30 31 31 32 32 33 33 32
30 30 29 29 29 30 29 29 28 27 27 26 26 25 26 26 26 27 27 27 26 27 27 27 28 28 28 28 29 29 30 30 30 30 31 31 31 31 32 32 32 33 33 33
29 29 29 29 29 30 29 29 29 28 27 27 27 27 27 27 27 27 28 28 28 28 28 28 27 27 27 28 29 29 30 31 32 32 32 32 32 32 33 32 33 34 33 33
29 29 29 30 30 30 29 29 29 29 28 28 28 27 27 27 27 28 28 28 28 28 28 28 28 28 29 29 30 30 31 32 32 32 32 32 33 33 33 33 33 32 32 32
29 29 29 30 30 30 30 29 29 29 29 29 28 28 28 27 27 27 28 28 27 28 28 28 28 29 29 30 30 31 32 32 32 32 32 32 33 33 33 32 31 31 32 32
Wind_Direction
211 210 210 214 217 221 227 236 246 252 255 269 279 291 296 305 311 326 335 338 338 339 341 347 355 2 4 1 359 2 5 7 5 0 345 332 324 325 337 350 358 3 4 350
211 215 220 223 226 230 237 240 251 252 254 267 276 286 288 283 282 288 306 315 317 320 324 324 326 330 340 346 342 339 339 341 340 344 337 327 320 320 322 317 311 315 320 320
214 219 223 226 228 228 234 238 245 250 260 265 269 286 287 284 280 280 290 300 303 304 307 307 306 309 311 314 313 314 319 319 317 316 319 313 306 303 309 310 305 303 301 298
221 223 225 225 225 225 237 242 243 246 257 271 267 275 284 289 291 288 290 294 297 296 297 298 298 296 294 297 301 303 304 308 310 309 309 301 291 288 291 296 300 301 297 290
224 225 226 225 227 227 235 242 243 249 258 264 268 269 277 283 294 293 291 294 294 291 291 292 293 290 287 287 292 294 295 298 304 303 301 296 291 288 289 295 298 296 292 286
225 226 225 224 227 230 233 240 249 255 261 263 263 263 271 279 289 293 292 293 293 289 287 286 288 287 282 281 285 291 292 291 294 294 294 293 291 290 289 291 293 292 291 288
227 227 226 225 226 230 231 234 250 260 262 266 266 266 268 273 283 291 294 292 290 288 289 288 286 287 286 286 286 289 292 293 292 290 291 292 292 292 289 288 288 289 287 287
228 230 227 223 224 230 233 230 235 245 257 268 274 273 276 280 282 286 292 292 289 287 289 290 287 286 288 288 290 290 292 293 294 295 291 288 288 291 293 292 288 288 288 289
226 232 231 228 229 230 233 235 238 246 256 264 269 276 279 286 282 282 286 290 291 288 287 288 287 287 287 286 287 288 290 290 292 294 297 295 288 288 293 293 290 290 291 290
226 230 235 236 236 235 237 239 242 244 254 263 272 276 280 283 281 279 282 285 287 285 284 286 287 287 286 286 286 287 288 289 290 292 292 292 293 292 293 293 290 290 291 291
227 230 235 238 237 240 240 242 245 249 252 256 266 273 277 279 279 279 280 284 284 282 282 281 283 284 285 285 285 285 286 286 288 289 289 289 288 288 289 290 289 290 291 292
228 229 234 240 241 240 242 243 246 251 258 259 260 269 275 277 277 277 279 283 284 281 281 280 280 280 282 284 287 286 285 285 286 287 288 289 288 285 285 285 286 288 289 289
229 230 234 242 247 245 244 245 247 250 257 260 260 266 274 275 277 277 279 280 281 280 280 280 278 277 280 282 286 286 284 285 286 285 286 287 286 283 282 283 283 284 286 286
233 233 232 236 243 248 248 249 250 252 255 259 262 264 271 273 275 278 278 278 278 278 278 277 276 276 278 281 283 285 285 285 286 286 284 285 286 285 283 283 282 283 284 285
236 237 237 238 240 245 249 251 253 254 255 258 264 268 270 271 273 276 277 277 278 278 279 279 279 277 278 280 282 284 285 285 284 284 283 285 287 286 283 283 284 283 283 285
238 240 242 244 246 248 251 252 254 256 257 260 264 267 270 271 272 275 276 276 277 278 279 281 282 282 280 281 282 283 283 283 282 282 282 284 284 284 285 285 285 283 283 284
241 243 246 248 250 252 253 253 255 258 258 258 261 265 268 271 272 274 276 276 277 278 278 279 281 283 283 283 283 284 284 284 283 282 282 283 283 284 285 285 285 283 283 285
243 246 248 250 251 251 253 254 255 258 260 260 261 264 267 268 270 272 274 273 273 276 280 281 281 282 283 284 285 286 285 285 284 283 283 283 283 283 284 284 284 283 284 286
243 246 248 248 250 255 255 256 256 257 258 258 260 261 264 266 268 270 272 273 272 276 279 279 280 281 283 283 284 286 286 286 287 285 284 282 282 282 282 284 284 283 284 284
244 245 248 249 249 252 255 256 256 256 258 259 260 261 264 266 267 270 272 274 276 277 278 279 279 281 284 285 285 286 287 287 287 287 286 284 282 282 282 283 284 284 284 283
245 246 247 249 250 251 254 256 256 255 258 259 260 260 262 263 267 270 273 273 275 276 276 277 279 280 282 284 285 286 287 287 288 288 287 286 285 283 283 283 284 284 285 285
245 247 247 247 248 250 253 255 256 258 259 259 259 261 263 264 267 269 272 273 275 277 277 278 278 278 280 282 284 287 288 288 289 289 288 287 285 284 284 285 284 284 285 285
244 244 245 246 248 251 253 254 256 258 260 260 259 262 264 266 268 269 272 274 275 276 277 277 277 278 280 282 285 286 287 289 289 288 287 286 285 285 286 286 285 286 287 287
244 244 245 246 247 250 252 254 256 258 260 261 261 263 265 266 267 268 271 272 273 274 275 277 278 280 281 282 284 286 287 288 288 288 287 285 285 284 284 284 285 286 287 288
244 246 247 247 248 250 252 254 255 257 259 260 261 263 265 266 266 265 266 268 271 273 273 275 278 281 282 283 284 286 287 287 288 288 287 286 285 285 285 286 286 286 286 286
244 246 247 248 248 249 251 252 253 255 257 259 260 262 264 265 266 267 267 269 272 274 276 277 278 280 282 283 285 286 287 288 289 289 289 288 287 286 286 287 287 286 286 286
Height
5910 5913 5914 5916 5917 5918 5919 5919 5920 5920 5919 5919 5919 5919 5918 5917 5916 5915 5914 5913 5911 5910 5909 5908 5907 5906 5905 5903 5902 5901 5900 5899 5898 5896 5896 5895 5894 5893 5892 5891 5891 5890 5889 5888
5910 5911 5912 5913 5914 5916 5917 5918 5919 5919 5918 5919 5918 5918 5917 5916 5916 5915 5914 5913 5912 5910 5909 5908 5907 5906 5905 5904 5902 5901 5900 5899 5898 5897 5896 5895 5894 5893 5892 5891 5890 5890 5889 5887
5907 5910 5910 5911 5913 5914 5915 5917 5917 5917 5917 5918 5918 5918 5917 5916 5915 5914 5913 5913 5911 5910 5909 5908 5907 5905 5904 5903 5902 5901 5900 5899 5898 5897 5896 5895 5894 5893 5892 5891 5890 5889 5888 5887
5904 5906 5908 5909 5911 5912 5914 5914 5915 5916 5916 5917 5917 5918 5916 5915 5914 5913 5913 5912 5911 5910 5908 5907 5906 5905 5904 5903 5901 5901 5899 5899 5897 5896 5895 5894 5893 5892 5891 5890 5889 5888 5887 5886
5902 5904 5905 5907 5909 5910 5912 5912 5913 5914 5915 5916 5916 5916 5916 5914 5913 5912 5911 5910 5910 5908 5907 5906 5905 5904 5903 5902 5901 5900 5899 5898 5897 5896 5895 5894 5893 5892 5890 5889 5888 5887 5886 5885
5900 5901 5903 5905 5906 5908 5909 5911 5911 5912 5913 5914 5914 5914 5914 5912 5911 5911 5910 5909 5908 5907 5905 5904 5903 5902 5901 5901 5900 5898 5897 5896 5895 5894 5893 5893 5891 5890 5889 5888 5886 5885 5884 5883
5897 5899 5900 5902 5904 5906 5907 5910 5912 5912 5913 5913 5912 5911 5912 5910 5909 5908 5908 5906 5905 5905 5904 5902 5901 5901 5900 5899 5898 5897 5896 5894 5893 5892 5891 5891 5889 5888 5887 5885 5884 5883 5882 5881
5895 5897 5898 5899 5901 5903 5905 5907 5910 5912 5912 5911 5909 5909 5909 5908 5907 5906 5905 5904 5903 5902 5901 5900 5899 5898 5898 5897 5896 5895 5894 5892 5891 5890 5889 5888 5887 5886 5884 5883 5882 5880 5879 5878
5892 5895 5895 5896 5898 5900 5901 5903 5906 5907 5907 5908 5908 5906 5906 5905 5904 5903 5902 5901 5900 5900 5899 5898 5897 5896 5895 5894 5893 5892 5891 5890 5889 5888 5887 5885 5884 5883 5881 5880 5879 5877 5876 5875
5888 5891 5892 5893 5895 5896 5898 5900 5902 5904 5904 5905 5905 5904 5904 5902 5901 5900 5899 5898 5898 5897 5896 5895 5894 5893 5892 5891 5890 5889 5888 5887 5886 5885 5884 5882 5881 5879 5878 5876 5875 5874 5873 5871
5884 5887 5889 5890 5891 5893 5895 5896 5897 5899 5900 5902 5903 5904 5900 5898 5898 5897 5896 5895 5894 5893 5892 5892 5891 5890 5889 5888 5887 5886 5885 5884 5882 5881 5880 5878 5877 5875 5874 5872 5871 5870 5868 5867
5880 5883 5885 5886 5887 5888 5890 5892 5893 5896 5895 5896 5898 5901 5895 5894 5894 5893 5892 5891 5890 5889 5889 5888 5887 5886 5885 5884 5882 5881 5880 5879 5878 5877 5875 5874 5872 5871 5869 5868 5867 5865 5864 5862
5875 5878 5880 5882 5884 5884 5885 5886 5888 5890 5891 5891 5893 5896 5891 5890 5889 5888 5888 5887 5886 5885 5885 5884 5883 5882 5881 5879 5878 5877 5876 5875 5874 5872 5871 5870 5868 5866 5865 5863 5862 5861 5859 5857
5869 5872 5876 5880 5880 5880 5880 5881 5883 5885 5886 5887 5887 5888 5886 5885 5885 5884 5883 5882 5881 5881 5880 5879 5878 5877 5876 5875 5874 5872 5871 5870 5869 5867 5866 5865 5863 5861 5859 5858 5857 5855 5854 5852
5863 5866 5868 5871 5872 5873 5875 5876 5877 5878 5880 5881 5881 5881 5881 5880 5879 5879 5878 5877 5876 5876 5875 5874 5873 5872 5871 5870 5869 5867 5866 5864 5863 5862 5861 5859 5857 5855 5853 5852 5851 5849 5848 5846
5857 5860 5862 5864 5866 5867 5868 5870 5871 5872 5873 5874 5874 5874 5874 5873 5873 5873 5872 5872 5871 5870 5870 5869 5868 5867 5865 5864 5863 5862 5860 5859 5857 5856 5854 5853 5851 5850 5848 5846 5844 5843 5841 5840
5851 5853 5856 5858 5859 5860 5862 5864 5865 5866 5866 5867 5868 5869 5868 5867 5867 5867 5867 5866 5865 5865 5864 5863 5862 5861 5860 5858 5857 5855 5854 5852 5851 5849 5848 5846 5844 5843 5841 5839 5838 5836 5835 5833
5844 5846 5848 5851 5852 5853 5858 5857 5858 5859 5860 5860 5861 5861 5861 5861 5861 5861 5860 5859 5859 5858 5858 5857 5855 5854 5853 5852 5850 5849 5847 5845 5844 5842 5840 5839 5837 5835 5834 5832 5831 5829 5828 5826
5836 5839 5841 5843 5845 5847 5849 5849 5851 5852 5852 5853 5853 5854 5854 5854 5855 5854 5853 5853 5852 5852 5851 5850 5849 5848 5847 5846 5844 5842 5840 5838 5836 5834 5833 5831 5829 5828 5826 5825 5823 5822 5820 5819
5828 5831 5834 5835 5837 5840 5842 5842 5843 5845 5845 5846 5847 5847 5848 5848 5848 5848 5847 5846 5846 5845 5844 5843 5842 5841 5840 5838 5837 5835 5833 5831 5829 5827 5825 5823 5821 5820 5819 5817 5815 5813 5812 5810
5821 5823 5825 5827 5829 5832 5833 5834 5836 5839 5839 5839 5839 5840 5841 5841 5841 5841 5840 5839 5839 5838 5837 5836 5835 5834 5833 5831 5829 5828 5826 5823 5821 5819 5817 5815 5813 5811 5810 5808 5807 5805 5803 5802
5813 5815 5817 5820 5822 5826 5824 5826 5829 5830 5830 5831 5832 5833 5833 5833 5833 5833 5832 5832 5831 5831 5830 5829 5828 5827 5825 5823 5822 5820 5818 5816 5813 5811 5808 5806 5804 5803 5801 5800 5798 5796 5794 5792
5805 5808 5809 5812 5815 5815 5816 5818 5820 5821 5822 5823 5824 5825 5825 5826 5825 5825 5825 5824 5824 5823 5823 5822 5820 5819 5817 5816 5814 5812 5810 5807 5805 5802 5800 5798 5796 5794 5792 5791 5789 5787 5785 5783
5796 5799 5801 5803 5805 5807 5808 5810 5811 5813 5814 5815 5816 5817 5817 5817 5817 5817 5817 5816 5816 5815 5815 5814 5813 5811 5810 5808 5806 5804 5802 5799 5796 5794 5792 5789 5787 5785 5783 5781 5779 5777 5775 5773
5788 5791 5792 5794 5797 5798 5800 5802 5803 5805 5806 5807 5808 5808 5809 5809 5809 5809 5808 5808 5807 5807 5806 5806 5805 5803 5802 5800 5798 5796 5793 5790 5788 5785 5782 5780 5778 5776 5774 5772 5769 5767 5766 5763
5781 5783 5785 5786 5789 5790 5792 5793 5795 5796 5797 5798 5799 5800 5800 5800 5800 5800 5800 5799 5799 5798 5798 5797 5796 5795 5793 5791 5789 5787 5784 5782 5779 5776 5773 5771 5768 5766 5764 5762 5760 5757 5756 5754